| time (UTC) | temp C | wind direction | speed KPH | gust KPH | rain 1hr cm | rain 24hr cm | rain mn cm | humidity % | barometer mb |
| 20260507164130 | 16 | 305 | 35.4 | 43.5 | 0.00 | 0.00 | 0.00 | 33 | 1011.5 |
| 20260507163627 | 17 | 315 | 45.1 | 48.3 | 0.00 | 0.00 | 0.00 | 32 | 1011.4 |
| 20260507163125 | 16 | 303 | 37.0 | 51.5 | 0.00 | 0.00 | 0.00 | 32 | 1011.3 |
| 20260507162620 | 16 | 313 | 35.4 | 56.3 | 0.00 | 0.00 | 0.00 | 32 | 1011.2 |
| 20260507162117 | 17 | 317 | 48.3 | 51.5 | 0.00 | 0.00 | 0.00 | 31 | 1011.1 |
| 20260507161613 | 16 | 310 | 35.4 | 46.7 | 0.00 | 0.00 | 0.00 | 33 | 1011.3 |
| 20260507161110 | 16 | 298 | 40.2 | 46.7 | 0.00 | 0.00 | 0.00 | 33 | 1011.4 |
| 20260507160606 | 16 | 297 | 45.1 | 54.7 | 0.00 | 0.00 | 0.00 | 33 | 1011.5 |
| 20260507155557 | 16 | 299 | 35.4 | 43.5 | 0.00 | 0.00 | 0.00 | 34 | 1011.6 |
| 20260507155055 | 16 | 275 | 37.0 | 43.5 | 0.00 | 0.00 | 0.00 | 35 | 1011.8 |
| 20260507154552 | 16 | 289 | 30.6 | 43.5 | 0.00 | 0.00 | 0.00 | 34 | 1011.8 |
| 20260507154049 | 16 | 300 | 27.4 | 43.5 | 0.00 | 0.00 | 0.00 | 34 | 1011.6 |
| 20260507153546 | 16 | 303 | 43.5 | 49.9 | 0.00 | 0.00 | 0.00 | 33 | 1011.8 |
| 20260507153042 | 16 | 287 | 43.5 | 51.5 | 0.00 | 0.00 | 0.00 | 32 | 1011.5 |
| 20260507152538 | 16 | 295 | 37.0 | 48.3 | 0.00 | 0.00 | 0.00 | 33 | 1011.8 |
| 20260507152034 | 16 | 302 | 29.0 | 48.3 | 0.00 | 0.00 | 0.00 | 33 | 1011.8 |
| 20260507151530 | 16 | 286 | 38.6 | 53.1 | 0.00 | 0.00 | 0.00 | 33 | 1011.5 |
| 20260507151028 | 15 | 308 | 43.5 | 53.1 | 0.00 | 0.00 | 0.00 | 33 | 1011.6 |
| 20260507150525 | 15 | 290 | 48.3 | 54.7 | 0.00 | 0.00 | 0.00 | 35 | 1011.6 |
| 20260507150021 | 14 | 301 | 41.8 | 48.3 | 0.00 | 0.00 | 0.00 | 36 | 1011.8 |
| 20260507145516 | 14 | 284 | 43.5 | 51.5 | 0.00 | 0.00 | 0.00 | 36 | 1011.5 |
| 20260507145015 | 14 | 295 | 35.4 | 48.3 | 0.00 | 0.00 | 0.00 | 37 | 1011.8 |
| 20260507144511 | 13 | 297 | 35.4 | 43.5 | 0.00 | 0.00 | 0.00 | 38 | 1012.0 |
| 20260507144008 | 13 | 285 | 25.7 | 40.2 | 0.00 | 0.00 | 0.00 | 39 | 1011.9 |
| 20260507143505 | 12 | 289 | 30.6 | 40.2 | 0.00 | 0.00 | 0.00 | 40 | 1012.0 |
| 20260507143002 | 12 | 288 | 27.4 | 38.6 | 0.00 | 0.00 | 0.00 | 42 | 1012.0 |
| 20260507142458 | 12 | 283 | 25.7 | 33.8 | 0.00 | 0.00 | 0.00 | 41 | 1011.9 |
| 20260507141955 | 12 | 280 | 32.2 | 38.6 | 0.00 | 0.00 | 0.00 | 41 | 1011.8 |
| 20260507141451 | 12 | 290 | 32.2 | 37.0 | 0.00 | 0.00 | 0.00 | 42 | 1011.9 |
| 20260507140948 | 11 | 296 | 30.6 | 38.6 | 0.00 | 0.00 | 0.00 | 42 | 1011.9 |
| 20260507140444 | 11 | 287 | 25.7 | 35.4 | 0.00 | 0.00 | 0.00 | 44 | 1011.9 |
| 20260507135942 | 11 | 285 | 25.7 | 37.0 | 0.00 | 0.00 | 0.00 | 45 | 1012.0 |
| 20260507135438 | 11 | 278 | 30.6 | 40.2 | 0.00 | 0.00 | 0.00 | 44 | 1012.0 |
| 20260507134936 | 10 | 288 | 35.4 | 38.6 | 0.00 | 0.00 | 0.00 | 45 | 1012.2 |
| 20260507134432 | 10 | 278 | 35.4 | 37.0 | 0.00 | 0.00 | 0.00 | 46 | 1011.9 |
| 20260507133929 | 10 | 271 | 32.2 | 38.6 | 0.00 | 0.00 | 0.00 | 46 | 1011.8 |
| 20260507133425 | 10 | 290 | 38.6 | 40.2 | 0.00 | 0.00 | 0.00 | 46 | 1011.9 |
| 20260507132924 | 10 | 287 | 33.8 | 37.0 | 0.00 | 0.00 | 0.00 | 47 | 1012.1 |
| 20260507132419 | 9 | 279 | 24.1 | 33.8 | 0.00 | 0.00 | 0.00 | 48 | 1012.0 |
| 20260507131916 | 9 | 289 | 19.3 | 33.8 | 0.00 | 0.00 | 0.00 | 47 | 1011.8 |
| 20260507131413 | 9 | 296 | 27.4 | 33.8 | 0.00 | 0.00 | 0.00 | 48 | 1012.0 |
| 20260507130910 | 9 | 287 | 24.1 | 43.5 | 0.00 | 0.00 | 0.00 | 47 | 1011.8 |
| 20260507130407 | 9 | 286 | 33.8 | 43.5 | 0.00 | 0.00 | 0.00 | 47 | 1011.8 |
| 20260507125906 | 9 | 291 | 35.4 | 37.0 | 0.00 | 0.00 | 0.00 | 48 | 1011.6 |
| 20260507125403 | 8 | 287 | 33.8 | 37.0 | 0.00 | 0.00 | 0.00 | 48 | 1011.4 |
| 20260507124900 | 9 | 288 | 30.6 | 40.2 | 0.00 | 0.00 | 0.00 | 47 | 1011.5 |
| 20260507124356 | 8 | 279 | 38.6 | 43.5 | 0.00 | 0.00 | 0.00 | 47 | 1011.4 |
| 20260507123855 | 8 | 271 | 38.6 | 43.5 | 0.00 | 0.00 | 0.00 | 47 | 1011.5 |
| 20260507123351 | 8 | 280 | 29.0 | 40.2 | 0.00 | 0.00 | 0.00 | 47 | 1011.3 |
| 20260507122848 | 8 | 277 | 27.4 | 43.5 | 0.00 | 0.00 | 0.00 | 49 | 1011.4 |
| 20260507122343 | 8 | 277 | 27.4 | 43.5 | 0.00 | 0.00 | 0.00 | 49 | 1011.4 |
| 20260507121839 | 8 | 275 | 25.7 | 33.8 | 0.00 | 0.00 | 0.00 | 50 | |
| 20260507094901 | 6 | 238 | 22.5 | 33.8 | 0.00 | 0.00 | 0.00 | 52 | 1012.0 |
| 20260507094357 | 6 | 238 | 22.5 | 33.8 | 0.00 | 0.00 | 0.00 | 52 | 1012.0 |
| 20260507093854 | 6 | 244 | 30.6 | 32.2 | 0.00 | 0.00 | 0.00 | 52 | 1011.9 |
| 20260507093352 | 5 | 243 | 20.9 | 32.2 | 0.00 | 0.00 | 0.00 | 56 | 1011.9 |
| 20260507092850 | 3 | 224 | 19.3 | 24.1 | 0.00 | 0.00 | 0.00 | 65 | 1011.9 |
| 20260507092346 | 2 | 217 | 11.3 | 20.9 | 0.00 | 0.00 | 0.00 | 68 | 1012.1 |
| 20260507091843 | 2 | 219 | 12.9 | 20.9 | 0.00 | 0.00 | 0.00 | 69 | 1011.9 |
| 20260507091339 | 2 | 203 | 12.9 | 17.7 | 0.00 | 0.00 | 0.00 | 69 | 1012.0 |
| 20260507090835 | 2 | 205 | 11.3 | 17.7 | 0.00 | 0.00 | 0.00 | 68 | 1012.0 |
| 20260507090331 | 3 | 197 | 11.3 | 19.3 | 0.00 | 0.00 | 0.00 | 67 | 1012.1 |
| 20260507085828 | 3 | 213 | 9.7 | 20.9 | 0.00 | 0.00 | 0.00 | 67 | 1012.1 |
| 20260507085325 | 2 | 229 | 11.3 | 20.9 | 0.00 | 0.00 | 0.00 | 69 | 1012.4 |
| 20260507084823 | 2 | 220 | 14.5 | 20.9 | 0.00 | 0.00 | 0.00 | 71 | 1012.3 |
| 20260507084319 | 2 | 216 | 17.7 | 27.4 | 0.00 | 0.00 | 0.00 | 71 | 1012.3 |
| 20260507083816 | 2 | 214 | 9.7 | 25.7 | 0.00 | 0.00 | 0.00 | 72 | 1012.4 |
| 20260507083313 | 2 | 219 | 17.7 | 24.1 | 0.00 | 0.00 | 0.00 | 74 | 1012.4 |
| 20260507082809 | 1 | 209 | 17.7 | 20.9 | 0.00 | 0.00 | 0.00 | 75 | 1012.3 |
| 20260507082306 | 1 | 207 | 9.7 | 16.1 | 0.00 | 0.00 | 0.00 | 75 | 1012.3 |
| 20260507081802 | 2 | 207 | 9.7 | 16.1 | 0.00 | 0.00 | 0.00 | 74 | 1012.4 |
| 20260507081258 | 2 | 200 | 11.3 | 16.1 | 0.00 | 0.00 | 0.00 | 73 | 1012.7 |
| 20260507080754 | 2 | 197 | 9.7 | 16.1 | 0.00 | 0.00 | 0.00 | 72 | 1012.8 |
| 20260507080251 | 2 | 228 | 14.5 | 17.7 | 0.00 | 0.00 | 0.00 | 72 | 1013.0 |
| 20260507075746 | 2 | 210 | 11.3 | 16.1 | 0.00 | 0.00 | 0.00 | 70 | 1012.8 |
| 20260507075242 | 3 | 226 | 9.7 | 17.7 | 0.00 | 0.00 | 0.00 | 65 | 1013.0 |
| 20260507074739 | 4 | 237 | 22.5 | 25.7 | 0.00 | 0.00 | 0.00 | 63 | 1012.8 |
| 20260507074237 | 4 | 236 | 19.3 | 27.4 | 0.00 | 0.00 | 0.00 | 63 | 1012.9 |
| 20260507073733 | 4 | 235 | 20.9 | 29.0 | 0.00 | 0.00 | 0.00 | 63 | 1013.1 |
| 20260507073230 | 4 | 236 | 20.9 | 32.2 | 0.00 | 0.00 | 0.00 | 64 | 1013.2 |
| 20260507072728 | 3 | 242 | 17.7 | 32.2 | 0.00 | 0.00 | 0.00 | 66 | 1013.3 |
| 20260507072225 | 3 | 242 | 29.0 | 32.2 | 0.00 | 0.00 | 0.00 | 66 | 1013.5 |
| 20260507071723 | 3 | 238 | 32.2 | 35.4 | 0.00 | 0.00 | 0.00 | 67 | 1013.5 |
| 20260507071219 | 3 | 228 | 22.5 | 33.8 | 0.00 | 0.00 | 0.00 | 70 | 1013.6 |
| 20260507070716 | 3 | 228 | 19.3 | 30.6 | 0.00 | 0.00 | 0.00 | 71 | 1013.3 |
| 20260507070213 | 3 | 231 | 22.5 | 35.4 | 0.00 | 0.00 | 0.00 | 72 | 1013.6 |
| 20260507065709 | 3 | 231 | 22.5 | 33.8 | 0.00 | 0.00 | 0.00 | 72 | 1013.8 |
| 20260507065206 | 3 | 239 | 25.7 | 32.2 | 0.00 | 0.00 | 0.00 | 71 | 1013.7 |
| 20260507064704 | 3 | 237 | 35.4 | 37.0 | 0.00 | 0.00 | 0.00 | 71 | 1013.7 |
| 20260507064203 | 3 | 229 | 29.0 | 37.0 | 0.00 | 0.00 | 0.00 | 71 | 1013.9 |
| 20260507063659 | 3 | 219 | 30.6 | 41.8 | 0.00 | 0.00 | 0.00 | 70 | 1013.8 |
| 20260507063156 | 3 | 230 | 33.8 | 38.6 | 0.00 | 0.00 | 0.00 | 71 | 1014.3 |
| 20260507062653 | 3 | 240 | 27.4 | 37.0 | 0.00 | 0.00 | 0.00 | 71 | 1013.9 |
| 20260507062150 | 3 | 242 | 30.6 | 33.8 | 0.00 | 0.00 | 0.00 | 71 | 1013.9 |
| 20260507061648 | 3 | 231 | 24.1 | 32.2 | 0.00 | 0.00 | 0.00 | 71 | 1014.0 |
| 20260507061146 | 3 | 238 | 29.0 | 35.4 | 0.00 | 0.00 | 0.00 | 71 | 1013.9 |
| 20260507060644 | 3 | 232 | 19.3 | 32.2 | 0.00 | 0.00 | 0.00 | 71 | 1014.0 |
| 20260507060140 | 3 | 226 | 14.5 | 35.4 | 0.00 | 0.00 | 0.00 | 71 | 1014.1 |
| 20260507055635 | 3 | 226 | 24.1 | 35.4 | 0.00 | 0.03 | 0.03 | 71 | 1014.1 |
| 20260507055132 | 3 | 237 | 30.6 | 38.6 | 0.00 | 0.03 | 0.03 | 71 | 1014.3 |
| 20260507054628 | 3 | 236 | 24.1 | 38.6 | 0.00 | 0.03 | 0.03 | 71 | 1014.1 |
| 20260507054125 | 3 | 232 | 30.6 | 38.6 | 0.00 | 0.03 | 0.03 | 71 | 1014.0 |
| 20260507053623 | 3 | 228 | 33.8 | 41.8 | 0.00 | 0.03 | 0.03 | 71 | 1014.0 |
| 20260507053121 | 3 | 226 | 32.2 | 41.8 | 0.00 | 0.03 | 0.03 | 70 | 1014.1 |
| 20260507052619 | 3 | 232 | 25.7 | 40.2 | 0.00 | 0.03 | 0.03 | 70 | 1014.1 |
| 20260507052115 | 3 | 233 | 32.2 | 41.8 | 0.00 | 0.03 | 0.03 | 70 | 1014.1 |
| 20260507051613 | 3 | 238 | 27.4 | 38.6 | 0.00 | 0.03 | 0.03 | 71 | 1014.1 |
| 20260507051109 | 3 | 230 | 30.6 | 43.5 | 0.00 | 0.03 | 0.03 | 70 | 1014.3 |
| 20260507050606 | 3 | 232 | 35.4 | 38.6 | 0.00 | 0.03 | 0.03 | 71 | 1014.1 |
| 20260507045559 | 3 | 228 | 16.1 | 35.4 | 0.00 | 0.03 | 0.03 | 71 | 1014.5 |
| 20260507045056 | 3 | 223 | 19.3 | 32.2 | 0.00 | 0.03 | 0.03 | 72 | 1014.4 |
| 20260507044553 | 3 | 208 | 20.9 | 33.8 | 0.00 | 0.03 | 0.03 | 72 | 1014.5 |
| 20260507044050 | 3 | 232 | 25.7 | 35.4 | 0.00 | 0.03 | 0.03 | 72 | 1014.4 |
| 20260507043545 | 3 | 231 | 22.5 | 30.6 | 0.00 | 0.03 | 0.03 | 72 | 1014.7 |
| 20260507043043 | 3 | 231 | 20.9 | 29.0 | 0.00 | 0.03 | 0.03 | 73 | 1014.7 |
| 20260507042539 | 3 | 226 | 17.7 | 29.0 | 0.00 | 0.03 | 0.03 | 71 | 1014.6 |
| 20260507042035 | 4 | 211 | 16.1 | 25.7 | 0.00 | 0.03 | 0.03 | 70 | 1014.7 |
| 20260507041532 | 4 | 222 | 20.9 | 24.1 | 0.00 | 0.03 | 0.03 | 69 | 1014.7 |
| 20260507041029 | 4 | 231 | 11.3 | 27.4 | 0.00 | 0.03 | 0.03 | 68 | 1014.7 |
| 20260507040525 | 4 | 217 | 12.9 | 25.7 | 0.00 | 0.03 | 0.03 | 67 | 1014.7 |
| 20260507040021 | 4 | 218 | 16.1 | 22.5 | 0.00 | 0.03 | 0.03 | 68 | 1014.8 |
| 20260507035517 | 4 | 218 | 12.9 | 19.3 | 0.00 | 0.03 | 0.03 | 68 | 1014.8 |
| 20260507035014 | 4 | 211 | 14.5 | 17.7 | 0.00 | 0.03 | 0.03 | 68 | 1015.2 |
| 20260507034511 | 4 | 222 | 14.5 | 20.9 | 0.00 | 0.03 | 0.03 | 67 | 1015.2 |
| 20260507034009 | 4 | 220 | 14.5 | 20.9 | 0.00 | 0.03 | 0.03 | 67 | 1015.4 |
| 20260507033507 | 4 | 204 | 9.7 | 17.7 | 0.00 | 0.03 | 0.03 | 67 | 1015.3 |
| 20260507033004 | 4 | 219 | 12.9 | 19.3 | 0.00 | 0.03 | 0.03 | 67 | 1015.3 |
| 20260507032501 | 3 | 201 | 11.3 | 17.7 | 0.00 | 0.03 | 0.03 | 68 | 1015.3 |
| 20260507031956 | 3 | 208 | 11.3 | 12.9 | 0.00 | 0.03 | 0.03 | 67 | 1015.2 |
| 20260507031453 | 3 | 199 | 11.3 | 16.1 | 0.00 | 0.03 | 0.03 | 67 | 1015.5 |
| 20260507030950 | 3 | 200 | 9.7 | 14.5 | 0.00 | 0.03 | 0.03 | 67 | 1015.4 |
| 20260507030447 | 3 | 191 | 6.4 | 11.3 | 0.00 | 0.03 | 0.03 | 66 | 1015.3 |
| 20260507025944 | 3 | 216 | 11.3 | 14.5 | 0.00 | 0.03 | 0.03 | 67 | 1015.6 |
| 20260507025441 | 3 | 187 | 8.0 | 12.9 | 0.00 | 0.03 | 0.03 | 66 | 1015.4 |
| 20260507024939 | 3 | 185 | 6.4 | 9.7 | 0.00 | 0.03 | 0.03 | 63 | 1015.4 |
| 20260507024436 | 4 | 203 | 8.0 | 12.9 | 0.00 | 0.03 | 0.03 | 61 | 1015.4 |
| 20260507023932 | 4 | 206 | 6.4 | 9.7 | 0.00 | 0.03 | 0.03 | 61 | 1015.2 |
| 20260507023429 | 4 | 195 | 6.4 | 11.3 | 0.00 | 0.03 | 0.03 | 60 | 1015.4 |
| 20260507022926 | 4 | 211 | 6.4 | 11.3 | 0.00 | 0.03 | 0.03 | 60 | 1015.3 |
| 20260507022423 | 4 | 200 | 6.4 | 9.7 | 0.00 | 0.03 | 0.03 | 58 | 1015.3 |
| 20260507021919 | 4 | 215 | 6.4 | 9.7 | 0.00 | 0.03 | 0.03 | 56 | 1015.2 |
| 20260507021414 | 5 | 223 | 6.4 | 11.3 | 0.00 | 0.03 | 0.03 | 53 | 1015.4 |
| 20260507020912 | 5 | 231 | 9.7 | 11.3 | 0.00 | 0.03 | 0.03 | 52 | 1015.2 |
| 20260507020409 | 5 | 227 | 9.7 | 12.9 | 0.00 | 0.03 | 0.03 | 50 | 1015.1 |
| 20260507015906 | 6 | 224 | 9.7 | 16.1 | 0.00 | 0.03 | 0.03 | 48 | 1015.1 |
| 20260507015404 | 6 | 233 | 16.1 | 17.7 | 0.00 | 0.03 | 0.03 | 46 | 1015.2 |
| 20260507014901 | 6 | 246 | 9.7 | 16.1 | 0.00 | 0.03 | 0.03 | 44 | 1015.2 |
| 20260507014356 | 7 | 240 | 11.3 | 19.3 | 0.00 | 0.03 | 0.03 | 43 | 1015.2 |
| 20260507013853 | 7 | 245 | 12.9 | 20.9 | 0.00 | 0.03 | 0.03 | 42 | 1015.2 |
| 20260507013350 | 7 | 252 | 12.9 | 20.9 | 0.00 | 0.03 | 0.03 | 42 | 1015.3 |
| 20260507012848 | 7 | 255 | 17.7 | 20.9 | 0.00 | 0.03 | 0.03 | 39 | 1015.2 |
| 20260507012343 | 8 | 267 | 17.7 | 22.5 | 0.00 | 0.03 | 0.03 | 38 | 1015.2 |
| 20260507011840 | 8 | 256 | 17.7 | 25.7 | 0.00 | 0.03 | 0.03 | 39 | 1015.2 |
| 20260507011337 | 8 | 234 | 17.7 | 27.4 | 0.00 | 0.03 | 0.03 | 40 | 1014.9 |
| 20260507010832 | 8 | 250 | 14.5 | 25.7 | 0.00 | 0.03 | 0.03 | 38 | 1015.1 |
| 20260507010328 | 8 | 250 | 17.7 | 27.4 | 0.00 | 0.03 | 0.03 | 36 | 1015.2 |
| 20260507005825 | 8 | 250 | 24.1 | 29.0 | 0.00 | 0.03 | 0.03 | 35 | 1014.9 |
| 20260507005322 | 8 | 239 | 17.7 | 20.9 | 0.00 | 0.03 | 0.03 | 34 | 1014.9 |
| 20260507004818 | 9 | 246 | 17.7 | 27.4 | 0.00 | 0.03 | 0.03 | 35 | 1014.8 |
| 20260507004316 | 8 | 245 | 20.9 | 30.6 | 0.00 | 0.03 | 0.03 | 35 | 1014.9 |
| 20260507003813 | 9 | 265 | 22.5 | 30.6 | 0.00 | 0.03 | 0.03 | 35 | 1015.2 |
| 20260507003308 | 9 | 242 | 25.7 | 33.8 | 0.00 | 0.03 | 0.03 | 36 | 1015.2 |
| 20260507002803 | 9 | 251 | 27.4 | 32.2 | 0.00 | 0.03 | 0.03 | 36 | 1015.3 |
| 20260507002300 | 9 | 269 | 17.7 | 20.9 | 0.00 | 0.03 | 0.03 | 37 | 1015.2 |
| 20260507001757 | 9 | 285 | 16.1 | 33.8 | 0.00 | 0.03 | 0.03 | 36 | 1015.2 |
| 20260507001254 | 9 | 244 | 24.1 | 30.6 | 0.00 | 0.03 | 0.03 | 36 | 1015.3 |
| 20260507000750 | 9 | 264 | 22.5 | 37.0 | 0.00 | 0.03 | 0.03 | 36 | 1015.2 |
| 20260507000246 | 9 | 278 | 20.9 | 38.6 | 0.00 | 0.03 | 0.03 | 36 | 1015.3 |
| 20260506235743 | 9 | 282 | 25.7 | 30.6 | 0.00 | 0.03 | 0.03 | 36 | 1015.3 |
| 20260506235238 | 10 | 260 | 9.7 | 17.7 | 0.00 | 0.03 | 0.03 | 34 | 1015.2 |
| 20260506234736 | 10 | 254 | 32.2 | 33.8 | 0.00 | 0.03 | 0.03 | 37 | 1015.4 |
| 20260506234233 | 9 | 285 | 25.7 | 27.4 | 0.00 | 0.03 | 0.03 | 37 | 1015.5 |
| 20260506233730 | 8 | 264 | 25.7 | 30.6 | 0.00 | 0.03 | 0.03 | 38 | 1015.4 |
| 20260506233227 | 9 | 247 | 29.0 | 38.6 | 0.00 | 0.03 | 0.03 | 36 | 1015.4 |
| 20260506232724 | 8 | 278 | 19.3 | 27.4 | 0.00 | 0.03 | 0.03 | 35 | 1015.4 |
| 20260506232218 | 10 | 257 | 20.9 | 24.1 | 0.00 | 0.03 | 0.03 | 34 | 1015.4 |
| 20260506231716 | 10 | 244 | 30.6 | 35.4 | 0.00 | 0.03 | 0.03 | 35 | 1015.2 |
| 20260506231214 | 10 | 276 | 27.4 | 35.4 | 0.00 | 0.03 | 0.03 | 36 | 1015.2 |
| 20260506230710 | 10 | 250 | 32.2 | 33.8 | 0.00 | 0.03 | 0.03 | 39 | 1015.2 |
| 20260506230208 | 9 | 242 | 14.5 | 27.4 | 0.00 | 0.03 | 0.03 | 39 | 1015.2 |
| 20260506225704 | 8 | 279 | 20.9 | 30.6 | 0.00 | 0.03 | 0.03 | 40 | 1015.4 |
| 20260506225201 | 10 | 271 | 33.8 | 37.0 | 0.00 | 0.03 | 0.03 | 36 | 1015.3 |
| 20260506224657 | 9 | 241 | 20.9 | 22.5 | 0.00 | 0.03 | 0.03 | 40 | 1015.4 |
| 20260506224154 | 8 | 279 | 12.9 | 19.3 | 0.00 | 0.03 | 0.03 | 40 | 1015.5 |
| 20260506223651 | 9 | 251 | 14.5 | 25.7 | 0.00 | 0.03 | 0.03 | 37 | 1015.3 |
| 20260506223146 | 9 | 254 | 22.5 | 32.2 | 0.00 | 0.03 | 0.03 | 37 | 1015.3 |
| 20260506222643 | 9 | 244 | 8.0 | 17.7 | 0.00 | 0.03 | 0.03 | 39 | 1015.5 |
| 20260506222139 | 9 | 242 | 19.3 | 20.9 | 0.00 | 0.03 | 0.03 | 37 | 1015.6 |
| 20260506221637 | 9 | 250 | 19.3 | 27.4 | 0.00 | 0.03 | 0.03 | 40 | 1015.6 |
| 20260506221135 | 8 | 272 | 17.7 | 20.9 | 0.00 | 0.03 | 0.03 | 39 | 1015.6 |
| 20260506220632 | 8 | 251 | 16.1 | 22.5 | 0.00 | 0.03 | 0.03 | 39 | 1015.6 |
| 20260506220127 | 9 | 208 | 11.3 | 24.1 | 0.00 | 0.03 | 0.03 | 37 | 1015.7 |
| 20260506215624 | 10 | 231 | 25.7 | 32.2 | 0.00 | 0.03 | 0.03 | 37 | 1015.9 |
| 20260506215119 | 8 | 241 | 17.7 | 20.9 | 0.00 | 0.03 | 0.03 | 38 | 1015.9 |
| 20260506214616 | 8 | 285 | 17.7 | 25.7 | 0.00 | 0.03 | 0.03 | 39 | 1015.9 |
| 20260506214114 | 9 | 224 | 12.9 | 27.4 | 0.00 | 0.03 | 0.03 | 39 | 1016.0 |
| 20260506213612 | 8 | 249 | 19.3 | 27.4 | 0.00 | 0.03 | 0.03 | 40 | 1016.1 |
| 20260506213109 | 8 | 286 | 9.7 | 25.7 | 0.00 | 0.03 | 0.03 | 40 | 1016.3 |
| 20260506212606 | 8 | 289 | 19.3 | 25.7 | 0.00 | 0.03 | 0.03 | 41 | 1016.2 |
| 20260506212101 | 8 | 253 | 20.9 | 30.6 | 0.00 | 0.03 | 0.03 | 38 | 1016.3 |
| 20260506211556 | 8 | 245 | 12.9 | 24.1 | 0.00 | 0.03 | 0.03 | 38 | 1016.4 |
| 20260506211054 | 8 | 260 | 17.7 | 29.0 | 0.00 | 0.03 | 0.03 | 38 | 1016.2 |
| 20260506210550 | 8 | 283 | 16.1 | 25.7 | 0.00 | 0.03 | 0.03 | 37 | 1016.4 |
| 20260506210047 | 9 | 246 | 16.1 | 29.0 | 0.00 | 0.03 | 0.03 | 37 | 1016.3 |
| 20260506205544 | 9 | 205 | 8.0 | 17.7 | 0.00 | 0.03 | 0.03 | 39 | 1016.5 |
| 20260506205039 | 8 | 243 | 22.5 | 25.7 | 0.00 | 0.03 | 0.03 | 40 | 1016.9 |
| 20260506204537 | 7 | 302 | 25.7 | 27.4 | 0.00 | 0.03 | 0.03 | 41 | 1016.9 |
| 20260506204034 | 8 | 296 | 20.9 | 27.4 | 0.00 | 0.03 | 0.03 | 39 | 1016.9 |
| 20260506203532 | 7 | 274 | 19.3 | 20.9 | 0.00 | 0.03 | 0.03 | 40 | 1016.8 |
| 20260506203028 | 8 | 269 | 14.5 | 20.9 | 0.00 | 0.03 | 0.03 | 38 | 1017.0 |
| 20260506202526 | 8 | 284 | 12.9 | 20.9 | 0.00 | 0.03 | 0.03 | 41 | 1017.0 |
| 20260506202022 | 8 | 345 | 9.7 | 14.5 | 0.00 | 0.03 | 0.03 | 38 | 1017.0 |
| 20260506201520 | 8 | 238 | 11.3 | 19.3 | 0.00 | 0.03 | 0.03 | 38 | 1017.2 |
| 20260506201016 | 8 | 275 | 14.5 | 16.1 | 0.00 | 0.03 | 0.03 | 41 | 1017.2 |
| 20260506200512 | 7 | 271 | 14.5 | 24.1 | 0.00 | 0.03 | 0.03 | 42 | 1017.2 |
| 20260506200010 | 8 | 248 | 8.0 | 20.9 | 0.00 | 0.03 | 0.03 | 39 | 1017.3 |
| 20260506195507 | 7 | 287 | 14.5 | 20.9 | 0.00 | 0.03 | 0.03 | 41 | 1017.5 |
| 20260506195003 | 7 | 323 | 12.9 | 16.1 | 0.00 | 0.03 | 0.03 | 41 | 1017.3 |
| 20260506194500 | 7 | 275 | 17.7 | 20.9 | 0.00 | 0.03 | 0.03 | 42 | 1017.6 |
| 20260506193956 | 7 | 286 | 17.7 | 24.1 | 0.00 | 0.03 | 0.03 | 41 | 1017.6 |
| 20260506193454 | 7 | 327 | 11.3 | 16.1 | 0.00 | 0.03 | 0.03 | 41 | 1017.7 |
| 20260506192950 | 6 | 280 | 14.5 | 20.9 | 0.00 | 0.03 | 0.03 | 42 | 1017.7 |
| 20260506192448 | 6 | 259 | 6.4 | 8.0 | 0.00 | 0.03 | 0.03 | 41 | 1017.8 |
| 20260506191944 | 7 | 293 | 11.3 | 16.1 | 0.00 | 0.03 | 0.03 | 41 | 1017.7 |
| 20260506191441 | 7 | 205 | 8.0 | 12.9 | 0.00 | 0.03 | 0.03 | 40 | 1017.6 |
| 20260506190937 | 7 | 355 | 6.4 | 12.9 | 0.00 | 0.03 | 0.03 | 41 | 1017.8 |
| 20260506190434 | 6 | 339 | 3.2 | 8.0 | 0.00 | 0.03 | 0.03 | 40 | 1017.9 |
| 20260506185931 | 7 | 279 | 17.7 | 35.4 | 0.00 | 0.03 | 0.03 | 40 | 1017.7 |
| 20260506185428 | 7 | 295 | 12.9 | 16.1 | 0.00 | 0.03 | 0.03 | 41 | 1017.8 |
| 20260506184925 | 7 | 328 | 9.7 | 12.9 | 0.00 | 0.03 | 0.03 | 41 | 1017.7 |
| 20260506184422 | 7 | 305 | 9.7 | 9.7 | 0.00 | 0.03 | 0.03 | 41 | 1017.7 |
| 20260506183919 | 7 | 265 | 9.7 | 11.3 | 0.00 | 0.03 | 0.03 | 41 | 1017.6 |
| 20260506183414 | 6 | 353 | 9.7 | 12.9 | 0.00 | 0.03 | 0.03 | 40 | 1017.7 |
| 20260506182912 | 6 | 320 | 16.1 | 17.7 | 0.00 | 0.03 | 0.03 | 39 | 1017.7 |
| 20260506182409 | 8 | 37 | 3.2 | 8.0 | 0.00 | 0.03 | 0.03 | 38 | 1017.9 |
| 20260506181906 | 7 | 135 | 6.4 | 8.0 | 0.00 | 0.03 | 0.03 | 42 | 1017.9 |
| 20260506181404 | 7 | 260 | 9.7 | 14.5 | 0.00 | 0.03 | 0.03 | 41 | 1017.8 |
| 20260506180901 | 6 | 343 | 12.9 | 22.5 | 0.00 | 0.03 | 0.03 | 39 | 1017.8 |
| 20260506180357 | 7 | 347 | 6.4 | 16.1 | 0.00 | 0.03 | 0.03 | 42 | 1017.8 |
| 20260506175854 | 7 | 25 | 1.6 | 8.0 | 0.00 | 0.03 | 0.03 | 41 | 1018.0 |
| 20260506175350 | 6 | 19 | 6.4 | 12.9 | 0.00 | 0.03 | 0.03 | 43 | 1018.1 |
| 20260506174847 | 6 | 10 | 12.9 | 30.6 | 0.00 | 0.03 | 0.03 | 41 | 1018.4 |
| 20260506174345 | 6 | 49 | 9.7 | 17.7 | 0.00 | 0.03 | 0.03 | 44 | 1018.2 |
| 20260506173843 | 6 | 146 | 3.2 | 14.5 | 0.00 | 0.03 | 0.03 | 42 | 1018.5 |
| 20260506173339 | 6 | 3 | 11.3 | 19.3 | 0.00 | 0.03 | 0.03 | 43 | 1018.5 |
| 20260506172836 | 6 | 337 | 14.5 | 24.1 | 0.00 | 0.03 | 0.03 | 42 | 1018.6 |
| 20260506172333 | 6 | 354 | 17.7 | 27.4 | 0.00 | 0.03 | 0.03 | 43 | 1018.5 |
| 20260506171830 | 5 | 68 | 16.1 | 24.1 | 0.00 | 0.03 | 0.03 | 45 | 1018.2 |
| 20260506171327 | 5 | 69 | 12.9 | 14.5 | 0.00 | 0.03 | 0.03 | 44 | 1018.5 |
| 20260506170825 | 5 | 29 | 9.7 | 14.5 | 0.00 | 0.03 | 0.03 | 46 | 1018.4 |
| 20260506170320 | 5 | 13 | 12.9 | 16.1 | 0.00 | 0.03 | 0.03 | 45 | 1018.5 |
| 20260506165820 | 5 | 42 | 8.0 | 20.9 | 0.00 | 0.03 | 0.03 | 41 | 1018.5 |
| 20260506165317 | 5 | 37 | 4.8 | 19.3 | 0.00 | 0.03 | 0.03 | 42 | 1018.5 |
| 20260506164813 | 5 | 345 | 8.0 | 22.5 | 0.00 | 0.03 | 0.03 | 42 | 1018.6 |